• In Deutschland
  • Länderverzeichnis
  • Für 7 Tage
  • Wassertemperatur
  • Satellitenkarten
  • Wetterkarte
  • Widgets
  • user-avatar
    Anmelden

    Stündliche Wetter Gevelsberg

    Heute, 22 September, Samstag

    Zeit Temperatur Niederschläge Wind Luftdruck Luftfeuchtigkeit
    00:00 +11°C° 0 mm 4 m/S 741 mmHg 68%
    01:00 +11°C° 0.1 mm 4 m/S 741 mmHg 70%
    02:00 +10°C° 0.1 mm 5 m/S 741 mmHg 71%
    03:00 +10°C° 0.1 mm 5 m/S 742 mmHg 73%
    04:00 +10°C° 0 mm 4 m/S 742 mmHg 74%
    05:00 +10°C° 0 mm 4 m/S 742 mmHg 75%
    06:00 +10°C° 0 mm 4 m/S 742 mmHg 77%
    07:00 +11°C° 0 mm 4 m/S 743 mmHg 71%
    08:00 +13°C° 0 mm 5 m/S 743 mmHg 65%
    09:00 +14°C° 0 mm 5 m/S 743 mmHg 59%
    10:00 +14°C° 0.1 mm 5 m/S 743 mmHg 59%
    11:00 +14°C° 0.1 mm 5 m/S 743 mmHg 59%
    12:00 +15°C° 0.1 mm 5 m/S 742 mmHg 59%
    13:00 +14°C° 0.3 mm 5 m/S 742 mmHg 63%
    14:00 +13°C° 0.3 mm 5 m/S 742 mmHg 66%
    15:00 +13°C° 0.3 mm 4 m/S 742 mmHg 70%
    16:00 +12°C° 0.1 mm 4 m/S 742 mmHg 73%
    17:00 +12°C° 0.1 mm 3 m/S 742 mmHg 76%
    18:00 +11°C° 0.1 mm 3 m/S 742 mmHg 78%
    19:00 +11°C° 0.1 mm 3 m/S 742 mmHg 80%
    20:00 +11°C° 0.1 mm 3 m/S 742 mmHg 81%
    21:00 +12°C° 0.1 mm 2 m/S 742 mmHg 83%
    22:00 +10°C° 0.3 mm 2 m/S 742 mmHg 84%
    23:00 +10°C° 0.3 mm 2 m/S 741 mmHg 85%

    Morgen, 23 September, Sonntag

    Zeit Temperatur Niederschläge Wind Luftdruck Luftfeuchtigkeit
    00:00 +10°C° 0.3 mm 2 m/S 741 mmHg 86%
    01:00 +10°C° 0.3 mm 2 m/S 740 mmHg 86%
    02:00 +10°C° 0.3 mm 2 m/S 740 mmHg 87%
    03:00 +11°C° 0.3 mm 1 m/S 739 mmHg 87%
    04:00 +11°C° 0.2 mm 1 m/S 739 mmHg 87%
    05:00 +11°C° 0.2 mm 1 m/S 738 mmHg 88%
    06:00 +11°C° 0.2 mm 1 m/S 738 mmHg 88%
    07:00 +12°C° 0.1 mm 1 m/S 738 mmHg 87%
    08:00 +12°C° 0.1 mm 1 m/S 738 mmHg 86%
    09:00 +12°C° 0.1 mm 1 m/S 738 mmHg 85%
    10:00 +12°C° 0.5 mm 1 m/S 737 mmHg 86%
    11:00 +12°C° 0.5 mm 2 m/S 736 mmHg 87%
    12:00 +12°C° 0.5 mm 2 m/S 736 mmHg 88%
    13:00 +10°C° 5.2 mm 4 m/S 735 mmHg 88%
    14:00 +9°C° 5.2 mm 5 m/S 735 mmHg 89%
    15:00 +8°C° 5.2 mm 6 m/S 734 mmHg 89%
    16:00 +8°C° 1.2 mm 6 m/S 736 mmHg 89%
    17:00 +7°C° 1.2 mm 6 m/S 737 mmHg 89%
    18:00 +7°C° 1.2 mm 5 m/S 738 mmHg 89%
    19:00 +7°C° 0.8 mm 5 m/S 740 mmHg 89%
    20:00 +7°C° 0.8 mm 5 m/S 741 mmHg 88%
    21:00 +7°C° 0.8 mm 4 m/S 743 mmHg 87%
    22:00 +7°C° 0 mm 4 m/S 744 mmHg 87%
    23:00 +7°C° 0 mm 4 m/S 744 mmHg 86%

    übermorgen, 24 September, Montag

    Zeit Temperatur Niederschläge Wind Luftdruck Luftfeuchtigkeit
    00:00 +7°C° 0 mm 4 m/S 745 mmHg 85%
    01:00 +7°C° 0 mm 3 m/S 746 mmHg 85%
    02:00 +7°C° 0 mm 3 m/S 747 mmHg 84%
    03:00 +7°C° 0 mm 3 m/S 748 mmHg 84%
    04:00 +7°C° 0 mm 3 m/S 749 mmHg 84%
    05:00 +5°C° 0 mm 3 m/S 749 mmHg 84%
    06:00 +5°C° 0 mm 3 m/S 750 mmHg 84%
    07:00 +8°C° 0 mm 3 m/S 751 mmHg 76%
    08:00 +9°C° 0 mm 3 m/S 751 mmHg 69%
    09:00 +11°C° 0 mm 3 m/S 752 mmHg 61%
    10:00 +12°C° 0.1 mm 4 m/S 752 mmHg 58%
    11:00 +13°C° 0.1 mm 4 m/S 753 mmHg 54%
    12:00 +13°C° 0.1 mm 4 m/S 753 mmHg 51%
    13:00 +13°C° 0.1 mm 4 m/S 753 mmHg 54%
    14:00 +13°C° 0.1 mm 4 m/S 753 mmHg 57%
    15:00 +12°C° 0.1 mm 4 m/S 753 mmHg 59%
    16:00 +11°C° 0 mm 4 m/S 753 mmHg 63%
    17:00 +10°C° 0 mm 3 m/S 754 mmHg 67%
    18:00 +9°C° 0 mm 2 m/S 754 mmHg 70%
    19:00 +9°C° 0 mm 2 m/S 754 mmHg 72%
    20:00 +8°C° 0 mm 2 m/S 755 mmHg 74%
    21:00 +8°C° 0 mm 1 m/S 755 mmHg 76%
    22:00 +8°C° 0 mm 1 m/S 756 mmHg 78%
    23:00 +8°C° 0 mm 1 m/S 756 mmHg 79%

    25 September, Dienstag

    Zeit Temperatur Niederschläge Wind Luftdruck Luftfeuchtigkeit
    00:00 +7°C° 0 mm 1 m/S 756 mmHg 81%
    01:00 +7°C° 0 mm 1 m/S 756 mmHg 81%
    02:00 +6°C° 0 mm 0 m/S 756 mmHg 82%
    03:00 +6°C° 0 mm 0 m/S 756 mmHg 83%
    04:00 +6°C° 0 mm 0 m/S 756 mmHg 82%
    05:00 +6°C° 0 mm 0 m/S 756 mmHg 82%
    06:00 +6°C° 0 mm 0 m/S 757 mmHg 82%
    07:00 +8°C° 0 mm 0 m/S 757 mmHg 73%
    08:00 +11°C° 0 mm 1 m/S 757 mmHg 65%
    09:00 +13°C° 0 mm 1 m/S 757 mmHg 57%
    10:00 +14°C° 0 mm 1 m/S 757 mmHg 52%
    11:00 +15°C° 0 mm 1 m/S 757 mmHg 47%
    12:00 +16°C° 0 mm 1 m/S 757 mmHg 43%
    13:00 +16°C° 0 mm 1 m/S 757 mmHg 42%
    14:00 +16°C° 0 mm 1 m/S 756 mmHg 42%
    15:00 +16°C° 0 mm 1 m/S 756 mmHg 42%
    16:00 +14°C° 0 mm 1 m/S 756 mmHg 48%
    17:00 +13°C° 0 mm 1 m/S 755 mmHg 54%
    18:00 +11°C° 0 mm 1 m/S 755 mmHg 59%
    19:00 +10°C° 0 mm 2 m/S 755 mmHg 62%
    20:00 +9°C° 0 mm 2 m/S 755 mmHg 64%
    21:00 +8°C° 0 mm 2 m/S 755 mmHg 66%
    22:00 +8°C° 0 mm 2 m/S 755 mmHg 66%
    23:00 +8°C° 0 mm 2 m/S 755 mmHg 66%

    26 September, Mittwoch

    Zeit Temperatur Niederschläge Wind Luftdruck Luftfeuchtigkeit
    00:00 +7°C° 0 mm 2 m/S 754 mmHg 65%
    01:00 +7°C° 0 mm 2 m/S 754 mmHg 65%
    02:00 +7°C° 0 mm 2 m/S 754 mmHg 64%
    03:00 +6°C° 0 mm 2 m/S 753 mmHg 64%
    04:00 +7°C° 0 mm 1 m/S 753 mmHg 64%
    05:00 +7°C° 0 mm 1 m/S 753 mmHg 63%
    06:00 +7°C° 0 mm 1 m/S 753 mmHg 63%
    07:00 +8°C° 0 mm 2 m/S 753 mmHg 57%
    08:00 +10°C° 0 mm 2 m/S 753 mmHg 51%
    09:00 +13°C° 0 mm 2 m/S 753 mmHg 45%
    10:00 +15°C° 0 mm 2 m/S 752 mmHg 41%
    11:00 +16°C° 0 mm 2 m/S 752 mmHg 38%
    12:00 +17°C° 0 mm 2 m/S 752 mmHg 34%
    13:00 +18°C° 0 mm 2 m/S 751 mmHg 35%
    14:00 +18°C° 0 mm 2 m/S 751 mmHg 35%
    15:00 +18°C° 0 mm 2 m/S 750 mmHg 36%
    16:00 +16°C° 0 mm 2 m/S 750 mmHg 41%
    17:00 +14°C° 0 mm 2 m/S 750 mmHg 46%
    18:00 +13°C° 0 mm 1 m/S 750 mmHg 51%
    19:00 +12°C° 0 mm 1 m/S 750 mmHg 52%
    20:00 +12°C° 0 mm 1 m/S 750 mmHg 54%
    21:00 +10°C° 0 mm 2 m/S 750 mmHg 55%
    22:00 +10°C° 0 mm 2 m/S 750 mmHg 57%
    23:00 +9°C° 0 mm 2 m/S 750 mmHg 59%

    27 September, Donnerstag

    Zeit Temperatur Niederschläge Wind Luftdruck Luftfeuchtigkeit
    00:00 +9°C° 0 mm 2 m/S 749 mmHg 61%
    01:00 +9°C° 0 mm 2 m/S 749 mmHg 63%
    02:00 +8°C° 0 mm 2 m/S 748 mmHg 65%
    03:00 +8°C° 0 mm 2 m/S 748 mmHg 67%
    04:00 +8°C° 0 mm 2 m/S 748 mmHg 67%
    05:00 +8°C° 0 mm 2 m/S 748 mmHg 67%
    06:00 +8°C° 0 mm 3 m/S 748 mmHg 67%
    07:00 +10°C° 0 mm 3 m/S 747 mmHg 60%
    08:00 +12°C° 0 mm 3 m/S 747 mmHg 53%
    09:00 +14°C° 0 mm 4 m/S 747 mmHg 46%
    10:00 +15°C° 0 mm 4 m/S 747 mmHg 44%
    11:00 +18°C° 0 mm 4 m/S 746 mmHg 41%
    12:00 +19°C° 0 mm 5 m/S 746 mmHg 39%
    13:00 +19°C° 0 mm 5 m/S 746 mmHg 42%
    14:00 +19°C° 0 mm 4 m/S 745 mmHg 45%
    15:00 +20°C° 0 mm 4 m/S 745 mmHg 48%
    16:00 +18°C° 0 mm 4 m/S 745 mmHg 57%
    17:00 +17°C° 0 mm 4 m/S 745 mmHg 66%
    18:00 +16°C° 0 mm 3 m/S 745 mmHg 74%
    19:00 +14°C° 0.1 mm 3 m/S 746 mmHg 78%
    20:00 +14°C° 0.1 mm 3 m/S 746 mmHg 81%
    21:00 +13°C° 0.1 mm 3 m/S 747 mmHg 85%
    22:00 +12°C° 0 mm 3 m/S 747 mmHg 84%
    23:00 +11°C° 0 mm 3 m/S 747 mmHg 84%
    Mehr zeigen